Regional Weather Roundup
Issued by NWS

Home | Current Version | Previous Version | Graphics & Text | Print | Product List | Glossary On
Versions: 1 2 3 4 5 6 7 8 9 10 11 12 13 14 15 16 17 18 19 20 21 22 23 24 25 26 27 28 29 30 31 32 33 34 35 36 37 38 39 40 41 42 43 44 45 46 47 48 49 50
000
ASUS43 KDTX 231710
RWRMI
MICHIGAN HOURLY REGIONAL WEATHER ROUNDUP
NATIONAL WEATHER SERVICE DETROIT/PONTIAC MI
100 PM EDT WED APR 23 2014

NOTE: "FAIR" INDICATES FEW OR NO CLOUDS BELOW 12,000 FEET WITH NO
SIGNIFICANT WEATHER AND/OR OBSTRUCTION TO VISIBILITY.

MIZ047>049-052>055-059>063-066>070-074>076-081>083-231800-
SOUTHEAST LOWER MICHIGAN

CITY           SKY/WX    TMP DP  RH WIND       PRES   REMARKS
ADRIAN         SUNNY     50  29  44 NE13      30.10S
ALMA           SUNNY     49  15  25 N9        30.13F
ANN ARBOR      SUNNY     50  26  39 N13G18    30.09S
BAD AXE        SUNNY     41  20  43 N14       30.12R
CARO           SUNNY     46  26  44 NW12      30.12S
DETROIT CITY   MOSUNNY   52  28  39 NW9       30.09S
DETROIT        MOSUNNY   50  29  44 NW10G18   30.10F
FLINT          SUNNY     49  23  36 N12G22    30.12S
GROSSE ILE     SUNNY     48  28  46 N12       30.08S
HILLSDALE      SUNNY     51  27  40 N9        30.09S
HOWELL         SUNNY     46  23  39 N8        30.10S

CITY           SKY/WX    TMP DP  RH WIND       PRES   REMARKS
JACKSON        SUNNY     51  24  34 N10G18    30.10S
LAMBERTVILLE   SUNNY     50  32  50 N6        30.10S
LANSING        SUNNY     50  19  29 NE7G18    30.12F
LAPEER         FAIR      46  27  47 N12G17    30.10S
MASON          SUNNY     49  24  37 N10       30.11S
MONROE         SUNNY     48  30  49 NE7       30.08F
MT. CLEMENS    MOSUNNY   49  28  44 N16G22    30.08R
PONTIAC        MOSUNNY   48  26  42 NW9G22    30.09S
PORT HOPE        N/A     39  25  57 NW6       30.12R WCI  35
PORT HURON     MOSUNNY   45  32  61 N7G17     30.09S
TRI CITIES     SUNNY     50  17  27 N12       30.12F
TROY           SUNNY     48  28  47 N7        30.10S
SAGINAW HB     SUNNY     46  18  31 NE6       30.12F
YPSILANTI      SUNNY     53  29  39 N13G20    30.09F
$$
MIZ043>046-050>051-056>058-064>065-071>073-077>080-231800-
SOUTHWEST LOWER MICHIGAN

CITY           SKY/WX    TMP DP  RH WIND       PRES   REMARKS
BATTLE CREEK   SUNNY     49  25  39 N8        30.12S
BENTON HARBOR  SUNNY     42  32  67 NW8       30.15F
BIG RAPIDS     SUNNY     49  18  29 NE7       30.11F
COLDWATER      SUNNY     49  25  40 NE8       30.11S
FREMONT        FAIR      49  19  30 N6        30.13F
HOLLAND        SUNNY     52  27  38 VRB6      30.15F
GRAND RAPIDS   PTSUNNY   51  21  30 VRB7      30.13S
IONIA          FAIR      48  21  35 NE9       30.11F
KALAMAZOO      SUNNY     51  26  37 N9        30.13S
LUDINGTON      SUNNY     47  29  50 NW14      30.16S
MARSHALL       SUNNY     48  26  41 W6        30.11S
MOUNT PLEASANT SUNNY     50  13  23 N12       30.11S
MUSKEGON       MOSUNNY   49  29  46 W10       30.15S
SOUTH HAVEN    SUNNY     45  30  55 NW8       30.15S
$$
MIZ016>042-231800-
NORTHERN LOWER MICHIGAN

CITY           SKY/WX    TMP DP  RH WIND       PRES   REMARKS
ALPENA         SUNNY     45  13  27 NW9       30.12S
BEAVER ISLAND  SUNNY     45  12  26 W5        30.18R
BELLAIRE       SUNNY     44  21  40 W7        30.15F
CADILLAC       SUNNY     46  16  30 N8        30.11S
CHARLEVOIX     SUNNY     40  18  40 NW7       30.20S
FRANKFORT      SUNNY     43  21  41 N7        30.18R
GAYLORD        SUNNY     43   2  18 VRB6      30.12R
GRAYLING       SUNNY     48   7  19 N10G17    30.12S
HARBOR SPRINGS SUNNY     38  26  63 SW7       30.15F WCI  32
HOUGHTON LAKE  SUNNY     48   9  20 NE9       30.11F
MANISTEE       SUNNY     43  25  49 NW14      30.17R
OSCODA         SUNNY     47  17  30 E7        30.11R
PELLSTON       SUNNY     46  14  27 VRB7      30.15S
ROGERS CITY    SUNNY     42  18  38 NW10      30.15S
TRAVERSE CITY  MOSUNNY   44  15  31 N8        30.15F
$$
MIZ007>008-015-231800-
EASTERN UPPER MICHIGAN

CITY           SKY/WX    TMP DP  RH WIND       PRES   REMARKS
KINROSS        SUNNY     39  12  33 NW16      30.14R WCI  30
MACKINAC ISLAN SUNNY     41  22  46 W8        30.15R
NEWBERRY       SUNNY     41  18  38 NW8G16    30.16S
S. S. MARIE    SUNNY     41  16  36 NW14G20   30.14S
MUNISING         N/A     37  28  70 NE9       30.19S WCI  30
$$
MIZ004>006-011>014-085-231800-
CENTRAL UPPER MICHIGAN

CITY           SKY/WX    TMP DP  RH WIND       PRES   REMARKS
MANISTIQUE     SUNNY     48  17  29 N12G17    30.16S
ESCANABA       SUNNY     46  19  34 NE9       30.17S
MENOMINEE      SUNNY     43  18  36 SE12      30.19F
SAWYER-GWINN   SUNNY     43  16  33 NE8       30.16F
$$
MIZ001>003-009>011-084-231800-
WESTERN UPPER MICHIGAN

CITY           SKY/WX    TMP DP  RH WIND       PRES   REMARKS
IRON MOUNTAIN  SUNNY     48  17  29 VRB5      30.14F
HOUGHTON       SUNNY     44  20  38 CALM      30.15F
COPPER HARBOR    N/A     38  28  67 NE3       30.17F
IRONWOOD       PTSUNNY   48  23  37 E5        30.10S
$$

ABBREVIATIONS USED IN REMARKS
   TC - TEMPERATURE IN CELSIUS
  WCI - WIND CHILL INDEX
   HX - HEAT INDEX
  VSB - VISIBILITY




USA.gov is the U.S. government's official web portal to all federal, state and local government web resources and services.